Regional Weather Roundup
Issued by NWS Kansas City/Pleasant Hill, MO

Home | Current Version | Previous Version | Graphics & Text | Print | Product List | Glossary Off
Versions: 1 2 3 4 5 6 7 8 9 10 11 12 13 14 15 16 17 18 19 20 21 22 23 24 25 26 27 28 29 30 31 32 33 34 35 36 37 38 39 40 41 42 43 44 45 46 47 48 49 50

000
ASUS43 KEAX 300510
RWREAX

WEATHER ROUNDUP FOR EASTERN KANSAS AND NORTHWEST MISSOURI
NATIONAL WEATHER SERVICE KANSAS CITY/PLEASANT HILL MO
1200 AM CDT WED JUL 30 2014

KSZ040-057-103>105-MOZ028-029-037-043-300600-
...KANSAS CITY METROPOLITAN AREA...

CITY           SKY/WX    TMP DP  RH WIND       PRES   REMARKS
K.C. INTL      PTCLDY    67  59  75 NE7       30.12R
K.C. DOWNTOWN  PTCLDY    72  58  61 NE5       30.10S
LEES SUMMIT    PTCLDY    71  58  63 CALM      30.11F
OLATHE - IXD   MOCLDY    72  58  61 CALM      30.12S
OLATHE - OJC   MOCLDY    71  58  63 NE3       30.11S
LAWRENCE       CLOUDY    68  62  81 NW3       30.11S

$$

MOZ001>008-011>017-020>025-030>033-038>040-044>046-053-054-300600-
...NORTHERN AND CENTRAL MISSOURI...

CITY           SKY/WX    TMP DP  RH WIND       PRES   REMARKS
ST. JOSEPH     PTCLDY    64  60  87 CALM      30.12S
MOSBY          PTCLDY    63  61  94 CALM      30.11S
WHITEMAN AFB   CLEAR     63  51  64 CALM      30.10S
CLINTON        CLEAR     64  61  88 CALM      30.10S
SEDALIA        CLEAR     65  58  78 CALM      30.11S
WARSAW         NOT AVBL
MARSHALL       PTCLDY    66  63  88 CALM      30.12S
CHILLICOTHE      N/A     64  59  83 CALM      30.12S
MOBERLY        MOCLDY    61  55  82 CALM      30.12R
KIRKSVILLE     CLOUDY    60  58  92 CALM      30.12R

$$

MOZ041-047>049-056>058-063>065-088>090-097-300600-
...EASTERN AND SOUTHERN MISSOURI...

CITY           SKY/WX    TMP DP  RH WIND       PRES   REMARKS
ST. LOUIS INTL PTCLDY    67  56  67 CALM      30.10S
SPIRIT OF STL  PTCLDY    61  58  90 CALM      30.09S
COLUMBIA       CLEAR     65  57  75 SE3       30.11R
JEFFERSON CITY PTCLDY    64  57  78 CALM      30.10R
MEXICO         CLEAR    N/A N/A N/A CALM      30.11R
HANNIBAL       CLEAR     64  54  68 S3        30.10S
ROLLA          MOCLDY    68  55  63 E5        30.10S
LEBANON        PTCLDY    66  55  68 CALM      30.12S
OSAGE BEACH    MOCLDY    63  55  77 CALM      30.11R
SPRINGFIELD    CLOUDY    71  60  68 CALM      30.10S HAZE
BRANSON        PTCLDY    66  59  77 CALM      30.12R
NEVADA         PTCLDY    64  63  94 CALM      30.12R
JOPLIN         MOCLDY    67  62  84 CALM      30.11R
WEST PLAINS    CLEAR     66  58  75 CALM      30.13R
MALDEN         CLEAR     66  59  77 CALM      30.11F

$$

IAZ060-094-KSZ022-034>040-054-083-096-NEZ052-066-093-300600-
...KANSAS...SOUTHEAST NEBRASKA AND IOWA...

CITY           SKY/WX    TMP DP  RH WIND       PRES   REMARKS
TOPEKA         MOCLDY    72  62  71 CALM      30.11S
MANHATTAN      CLOUDY    72  59  63 NE6       30.11S
EMPORIA        MOCLDY    65  60  84 E5        30.11S
CHANUTE        MOCLDY    65  61  87 CALM      30.10S
WICHITA        CLOUDY    73  62  68 E9        30.09S
OMAHA          CLEAR     65  58  78 CALM      30.13F
LINCOLN        PTCLDY    64  57  78 CALM      30.15S
FALLS CITY     CLEAR     66  58  75 CALM      30.12S
LAMONI         CLEAR     60  56  86 NW3       30.12S
DES MOINES     CLEAR     65  56  72 W5        30.10S

$$




USA.gov is the U.S. government's official web portal to all federal, state and local government web resources and services.